Overview Statistics Trail Chart Weather Telemetry Raw packets
 

This is the latest recevied weather packets stored in our database for station/object OE6ATD-13. If no packets are shown the sender has not sent any weather packets the latest 10 day(s).

<< 51 52 53 54 55 56 57 >>
Time Temp. Humidity Pressure Rain* Wind** Luminosity Snow
1787913021 28.89° C 50% 1015.3 hPa 0 mm - 929 W/m² -
1787912420 28.33° C 51% 1015.5 hPa 0 mm - 862 W/m² -
1787911816 27.78° C 51% 1015.7 hPa 0 mm - 569 W/m² -
1787911227 27.22° C 52% 1015.6 hPa 0 mm - 854 W/m² -
1787910623 26.11° C 59% 1015.9 hPa 0 mm - 642 W/m² -
1787910018 26.11° C 59% 1016 hPa 0 mm - 313 W/m² -
1787909430 26.11° C 59% 1016.2 hPa 0 mm - 297 W/m² -
1787908819 26.67° C 56% 1016.3 hPa 0 mm - 389 W/m² -
1787908215 26.67° C 56% 1016.1 hPa 0 mm - 448 W/m² -
1787907627 26.11° C 57% 1016.2 hPa 0 mm - 545 W/m² -
1787907022 26.11° C 58% 1016.2 hPa 0 mm - 621 W/m² -
1787906418 25.56° C 60% 1016.5 hPa 0 mm - 438 W/m² -
1787905829 25.56° C 59% 1016.4 hPa 0 mm - 441 W/m² -
1787905224 25° C 60% 1016.2 hPa 0 mm - 463 W/m² -
1787904620 25° C 59% 1016.4 hPa 0 mm - 422 W/m² -
1787904016 25.56° C 61% 1016.3 hPa 0 mm - 436 W/m² -
1787903427 25.56° C 60% 1016.5 hPa 0 mm - 421 W/m² -
1787902823 24.44° C 62% 1016.7 hPa 0 mm - 349 W/m² -
1787902219 23.89° C 62% 1016.7 hPa 0 mm - 326 W/m² -
1787901629 23.89° C 61% 1016.7 hPa 0 mm - 320 W/m² -
1787901024 25° C 61% 1016.6 hPa 0 mm - 298 W/m² -
1787900419 25° C 61% 1016.7 hPa 0 mm - 382 W/m² -
1787899815 24.44° C 61% 1016.6 hPa 0 mm - 321 W/m² -
1787899226 23.89° C 62% 1016.6 hPa 0 mm - 265 W/m² -
1787898622 23.33° C 72% 1016.4 hPa 0 mm - 225 W/m² -

* Rain latest hour (hover to see other rain measurements)
** Current wind speed in m/s (hover to see current wind gust speed)